{"data":{"norad_id":66935,"epoch":"2026-05-24T21:45:41.362272Z","epoch_age_seconds":78992,"freshness":"FRESH","line1":"1 66935U 25286L   26144.90672873  .00025778  00000+0  77137-3 0  9997","line2":"2 66935  53.1594   3.8841 0001069  65.2146 294.8967 15.34403372 27097","mean_motion":15.34403372,"eccentricity":0.0001069,"inclination_deg":53.1594,"raan_deg":3.8841,"arg_perigee_deg":65.2146,"mean_anomaly_deg":294.8967,"bstar":0.00077137,"rev_number":2709,"period_min":93.847551841798,"perigee_km":461.96193318055,"apogee_km":463.42450268114,"semimajor_km":6840.8302179308,"source":"CELESTRAK","updated_at":"2026-05-25T13:38:21.386905Z"}}